TimePST,TemperatureF,Dew PointF,Humidity,Sea Level PressureIn,VisibilityMPH,Wind Direction,Wind SpeedMPH,Gust SpeedMPH,PrecipitationIn,Events,Conditions,WindDirDegrees,DateUTC
12:53 AM,39.0,30.9,73,30.27,10.0,South,4.6,-,N/A,,Overcast,190,2014-01-28 08:53:00
1:53 AM,39.0,30.9,73,30.27,10.0,Calm,Calm,-,N/A,,Overcast,0,2014-01-28 09:53:00
2:53 AM,39.0,30.0,70,30.26,10.0,South,3.5,-,N/A,,Overcast,190,2014-01-28 10:53:00
3:53 AM,39.0,34.0,82,30.25,10.0,South,3.5,-,N/A,,Overcast,170,2014-01-28 11:53:00
4:53 AM,39.9,30.0,68,30.25,10.0,South,4.6,-,N/A,,Overcast,180,2014-01-28 12:53:00
5:53 AM,39.9,30.0,68,30.25,10.0,SSE,3.5,-,N/A,,Overcast,150,2014-01-28 13:53:00
6:34 AM,39.0,30.0,70,30.25,10.0,SSE,3.5,-,N/A,,Overcast,160,2014-01-28 14:34:00
6:53 AM,39.0,30.0,70,30.25,10.0,SSE,3.5,-,N/A,,Overcast,160,2014-01-28 14:53:00
7:53 AM,39.0,32.0,76,30.26,10.0,SSE,4.6,-,N/A,,Overcast,150,2014-01-28 15:53:00
8:53 AM,39.0,33.1,79,30.27,10.0,South,3.5,-,N/A,,Overcast,190,2014-01-28 16:53:00
9:53 AM,39.9,33.1,77,30.27,10.0,South,3.5,-,N/A,,Overcast,190,2014-01-28 17:53:00
10:53 AM,42.1,33.1,70,30.26,10.0,South,6.9,-,N/A,,Overcast,170,2014-01-28 18:53:00
11:53 AM,42.1,33.1,70,30.22,10.0,South,8.1,-,N/A,,Overcast,170,2014-01-28 19:53:00
12:53 PM,43.0,34.0,71,30.19,10.0,ESE,5.8,-,N/A,,Overcast,120,2014-01-28 20:53:00
1:53 PM,44.1,34.0,68,30.16,10.0,Calm,Calm,-,N/A,,Overcast,0,2014-01-28 21:53:00
2:53 PM,43.0,37.0,80,30.16,6.0,South,3.5,-,0.01,Rain,Light Rain,190,2014-01-28 22:53:00
3:53 PM,42.1,37.9,85,30.14,5.0,South,3.5,-,0.03,Rain,Light Rain,170,2014-01-28 23:53:00
4:53 PM,39.9,39.0,97,30.13,5.0,South,4.6,-,0.07,Rain,Light Rain,170,2014-01-29 00:53:00
5:53 PM,39.9,37.9,93,30.11,5.0,South,4.6,-,0.08,Rain,Light Rain,190,2014-01-29 01:53:00
6:45 PM,39.0,39.0,100,30.07,2.5,South,4.6,-,0.03,Rain,Light Rain,190,2014-01-29 02:45:00
6:53 PM,39.0,37.9,96,30.07,4.0,South,5.8,-,0.04,Rain,Light Rain,170,2014-01-29 02:53:00
7:53 PM,39.0,37.9,96,30.06,5.0,SSE,5.8,-,0.01,Rain,Light Rain,160,2014-01-29 03:53:00
8:09 PM,39.0,39.0,100,30.05,3.0,South,5.8,-,0.01,Rain,Light Rain,170,2014-01-29 04:09:00
8:22 PM,39.9,39.0,97,30.05,3.0,Variable,4.6,-,0.02,Rain,Light Rain,0,2014-01-29 04:22:00
8:43 PM,39.9,39.0,97,30.04,5.0,South,6.9,-,0.02,Rain,Light Rain,180,2014-01-29 04:43:00
8:53 PM,39.9,39.0,97,30.05,6.0,SSE,6.9,-,0.02,Rain,Light Rain,160,2014-01-29 04:53:00
9:53 PM,39.0,37.9,96,30.03,6.0,SSE,6.9,-,0.00,Rain,Light Rain,150,2014-01-29 05:53:00
10:53 PM,39.9,39.0,97,29.99,4.0,SE,9.2,-,0.01,Rain,Light Rain,140,2014-01-29 06:53:00
11:53 PM,39.0,39.0,100,29.98,5.0,SSE,5.8,-,0.01,Rain,Light Rain,150,2014-01-29 07:53:00